weather.gov     
National Weather Service

Terminal Aerodrome Forecast
NWS Homepage
This page is being discontinued on March 12, 2014.
The same data is available at this site. Please update your bookmarks.
Thank you, and we apologize for the inconvenience.
Please send an email to SR-SRH.Webmaster@noaa.gov with any concerns.


Current Version
Previous Version:    01  02  03  04  05  06  07  08  09  10  11  12  13  14  15  16  17  18  19  20  21  22  23  24  25  26  27  
[Printable]
326
FTUS44 KSHV 250500
TAFMLU
TAF
KMLU 250532Z 2506/2606 00000KT 2SM BR SKC
      TEMPO 2506/2508 1/2SM FG VV002
     FM250800 00000KT 1 1/2SM BR SKC
      TEMPO 2508/2512 1/2SM FG VV002
     FM251400 26005KT P6SM SKC
     FM252000 26005KT P6SM FEW050
     FM260000 00000KT P6SM SKC=


U.S. Dept. of Commerce
NOAA National Weather Service
1325 East West Highway
Silver Spring, MD 20910
E-mail: w-nws.webmaster@noaa.gov
Page last modified: May 16, 2007
NATIONAL WEATHER SERVICE: for Safety, for Work, for Fun - FOR LIFE